Weather in Bol'shaya Orsha

Russia / Mari El Republic     56°55′18″N   47°49′36″E
temp.,
°C
wind,
m/s
gust,
m/s
humid.,
%
clouds,
%
prec.,
mm/h
press.,
hPa
HPBL,
m
25 february, thu
thu2500:00−23ssw229594 0.0 103424
03:00−23s349996 0.0 103294
06:00−22s4895100 0.0 1029235
09:00−20sse5992100 0.0 1026305
12:00−16sse61294100 0.4 1023460
15:00−15sse61193100 1.3 1020598
18:00−15sse61195100 1.0 1018627
21:00−15sse51094100 1.6 1017502
26 february, fri
fri2600:00−15se4995100 0.4 1015405
03:00−16se489599 0.7 1016335
06:00−17se389693 0.1 1014288
09:00−15sse479496 0.3 1013334
12:00−12se5892100 0.1 1011398
15:00−10se61092100 0.2 1008447
18:00−10se71494100 0.9 1002436
21:00−8se71494100 4.9 997502
27 february, sat
sat2700:00−8se51095100 4.3 994371
03:00−7e3496100 7.4 993156
06:00−9ne3596100 1.2 992168
09:00−10ne4794100 1.7 994306
12:00−10ne5893100 0.3 995451
15:00−10nne5994100 1.2 998576
18:00−11nne51091100 0.4 1000613
21:00−13n51092100 0.4 1003440
28 february, sun
sun2800:00−16n4109699 0.0 1004270
03:00−18n4109695 0.0 1006260
06:00−20n4109674 0.0 1008282
09:00−18n499271 0.0 1009345
12:00−15n489065 0.0 1011466
15:00−13n588980 0.0 1012619
18:00−16n3995100 0.0 1014310
21:00−18n389691 0.1 1017211
1 march, mon
mon100:00−20n369818 0.0 1018101
03:00−22n359810 0.0 102191
06:00−23n33980 0.0 102259
09:00−19n24950 0.0 1023184
12:00−13nw238518 0.0 1023329
15:00−11w248923 0.0 1022354
18:00−14sw369654 0.0 1020121
21:00−11sw4109677 0.0 1018309